STARLINK-36878

Last updated on Tue Mar 24 2026 00:02:05 GMT+0000 (Coordinated Universal Time)

1 67899U 26035W 26082.37356857 .00039728 00000+0 20727-3 0 9996 2 67899 97.2882 15.5335 0002251 81.2062 278.9461 15.80806906 6004
UTC large
Height (km)
Speed (km/s)
/
Latitude / Longitude
Inclination (degrees)
Orbital Period (minutes)
Azimuth
Elevation
Range (km)
Doppler Factor

Next 0 passes for location: London (51.5072 / 0.1276)

Sorry there are no passes over London.